[[{"header":{"parameterUnit":"m.s-1","parameterCategory":1,"la1":30.2992,"la2":30.254,"lo1":-89.0895,"lo2":-89.0443,"dy":0.0025,"dx":0.0025,"nx":19,"ny":19,"refTime":"2026-04-22T21:00:00:Z","depth":0,"parameterNumber":2,"parameterNumberName":"U-component_of_WINDS"},"data":[0,0,0,-2.3008,-2.3012,-2.321,-2.321,-2.3451,-2.3453,0,0,0,0,0,0,0,0,0,0,0,-2.294,-2.2941,-2.3007,-2.3012,-2.321,-2.3211,-2.3451,-2.3453,0,0,0,0,0,0,0,0,0,0,0,-2.2939,-2.2941,-2.2942,-2.3013,-2.3209,-2.3211,-2.345,-2.3306,0,0,0,0,0,0,0,0,0,0,-2.3116,-2.3043,-2.294,-2.2942,-2.3014,-2.3209,-2.3211,-2.3299,-2.3315,-2.3355,0,-2.3387,0,-2.3424,-2.3468,-2.3469,0,0,0,-2.302,-2.303,-2.3092,-2.2942,-2.3016,-2.3209,-2.3123,-2.3308,-2.3326,-2.3376,-2.3391,-2.34,-2.3428,-2.3469,-2.3471,-2.3676,-2.3677,0,0,-2.3009,-2.2971,-2.308,-2.3103,-2.307,-2.3116,-2.3129,-2.3319,-2.3333,-2.3392,-2.3406,-2.3432,-2.3471,-2.3473,-2.3676,-2.3677,0,0,0,-2.2972,-2.2962,-2.302,-2.3093,-2.3129,-2.3122,-2.3136,-2.3325,-2.3347,-2.3409,-2.3435,-2.3472,-2.3475,-2.3675,-2.3676,-2.3668,0,0,0,-2.2966,-2.2941,-2.3015,-2.2993,-2.3125,-2.3229,-2.3137,-2.3333,-2.3356,-2.3433,-2.3472,-2.3477,-2.3675,-2.3676,-2.3667,-2.367,0,0,0,-2.293,-2.2937,-2.2962,-2.2991,-2.3074,-2.3227,-2.326,-2.3339,-2.3371,-2.3469,-2.3478,-2.3674,-2.3676,-2.3666,-2.3669,-2.3713,0,0,0,-2.2881,-2.2953,-2.2962,-2.3052,-2.3072,-2.322,-2.3259,-2.3371,-2.3454,-2.3473,-2.3675,-2.3676,-2.3665,-2.3668,-2.3711,-2.3742,-2.3752,0,0,-2.295,-2.296,-2.3016,-2.303,-2.3166,-2.3193,-2.3329,-2.3442,-2.3487,-2.3611,-2.3617,-2.3667,-2.3669,-2.3713,-2.3819,-2.3826,0,0,0,-2.3025,-2.3065,-2.311,-2.3186,-2.3273,-2.3349,-2.3445,-2.3487,-2.3594,-2.3542,-2.3697,-2.3699,-2.3726,-2.3743,-2.3749,-2.3775,-2.3682,-2.3682,-2.3682,-2.3068,-2.3121,-2.3219,-2.3296,-2.337,-2.3469,-2.3534,-2.3608,-2.3641,-2.3677,-2.3714,-2.3772,-2.3789,-2.3794,-2.3821,-2.3735,-2.3735,-2.3735,-2.3735,-2.3174,-2.3239,-2.3281,-2.339,-2.3447,-2.3541,-2.364,-2.366,-2.3756,-2.3748,-2.3775,-2.376,-2.38,-2.3827,-2.3735,-2.3735,-2.3735,-2.3735,-2.3735,-2.3207,-2.3247,-2.3297,-2.3413,-2.3498,-2.3576,-2.3666,-2.3715,-2.3763,-2.3789,-2.3834,-2.3834,-2.384,-2.3807,-2.3807,-2.3808,-2.3808,-2.3808,-2.3808,-2.322,-2.3277,-2.3346,-2.3445,-2.3502,-2.3582,-2.3684,-2.3741,-2.3818,-2.3847,-2.3847,-2.3877,-2.3794,-2.3772,-2.3811,-2.3811,-2.381,-2.381,-2.381,-2.3306,-2.3295,-2.3401,-2.3457,-2.3579,-2.366,-2.3723,-2.3836,-2.3891,-2.3934,-2.3959,-2.3891,-2.3904,-2.39,-2.3881,-2.3947,-2.3947,-2.3947,-2.3947,-2.3333,-2.3345,-2.3465,-2.3552,-2.3643,-2.3711,-2.3832,-2.3912,-2.3994,-2.4032,-2.403,-2.4011,-2.4004,-2.4022,-2.4015,-2.3999,-2.4093,-2.4093,-2.4093,-2.3389,-2.3412,-2.3504,-2.3582,-2.3682,-2.3767,-2.3882,-2.3982,-2.4073,-2.41,-2.4063,-2.4057,-2.4026,-2.4013,-2.4037,-2.4025,-2.3996,0,0]},{"header":{"parameterUnit":"m.s-1","parameterCategory":1,"la1":30.2992,"la2":30.254,"lo1":-89.0895,"lo2":-89.0443,"dy":0.0025,"dx":0.0025,"nx":19,"ny":19,"refTime":"2026-04-22T21:00:00:Z","depth":0,"parameterNumber":3,"parameterNumberName":"V-component_of_WINDS"},"data":[0,0,0,4.3158,4.3157,4.3127,4.3127,4.3107,4.3107,0,0,0,0,0,0,0,0,0,0,0,4.3179,4.3179,4.3158,4.3157,4.3127,4.3127,4.3107,4.3107,0,0,0,0,0,0,0,0,0,0,0,4.3179,4.3179,4.318,4.3157,4.3127,4.3127,4.3107,4.3123,0,0,0,0,0,0,0,0,0,0,4.3149,4.3181,4.3179,4.318,4.3157,4.3127,4.3127,4.3124,4.3122,4.313,0,4.314,0,4.3124,4.3108,4.3108,0,0,0,4.3148,4.3183,4.3163,4.318,4.3157,4.3127,4.3138,4.3123,4.3121,4.3128,4.314,4.3139,4.3123,4.3108,4.3108,4.3182,4.3183,0,0,4.3149,4.318,4.3164,4.3163,4.317,4.3139,4.3137,4.3121,4.3136,4.314,4.3138,4.3123,4.3108,4.3108,4.3181,4.3182,0,0,0,4.3161,4.3182,4.3162,4.3164,4.3157,4.3138,4.3136,4.3137,4.3128,4.3137,4.3123,4.3108,4.3108,4.318,4.3182,4.3249,0,0,0,4.3161,4.3188,4.3163,4.3182,4.3158,4.3147,4.3152,4.3129,4.3126,4.3123,4.3108,4.3108,4.318,4.3181,4.3245,4.3275,0,0,0,4.3177,4.319,4.319,4.3184,4.3172,4.3146,4.3136,4.3128,4.3118,4.3108,4.3108,4.3179,4.3181,4.3242,4.3269,4.3301,0,0,0,4.3202,4.3251,4.3192,4.3241,4.3172,4.3189,4.3136,4.3147,4.3146,4.3108,4.318,4.3182,4.3241,4.3266,4.3298,4.3332,4.335,0,0,4.3281,4.3262,4.3289,4.3234,4.3269,4.3191,4.3236,4.3206,4.3178,4.3182,4.3183,4.3246,4.3269,4.3301,4.3444,4.3459,0,0,0,4.3324,4.3343,4.3346,4.3346,4.3325,4.3309,4.3269,4.3258,4.326,4.3187,4.3267,4.328,4.3297,4.3312,4.3324,4.3335,4.3191,4.319,4.319,4.3479,4.3439,4.3479,4.3436,4.3437,4.3396,4.3392,4.337,4.333,4.335,4.335,4.3442,4.346,4.3469,4.3482,4.3367,4.3367,4.3368,4.3368,4.3588,4.3608,4.3554,4.3573,4.353,4.3546,4.3508,4.3479,4.3486,4.3439,4.3452,4.3402,4.3486,4.3495,4.3372,4.3372,4.3371,4.3371,4.337,4.3683,4.3685,4.3671,4.3667,4.3668,4.3623,4.3632,4.3594,4.3557,4.3571,4.3565,4.3563,4.3555,4.3571,4.3572,4.3572,4.3572,4.3572,4.3573,4.3785,4.3767,4.378,4.3761,4.3756,4.3744,4.3702,4.3695,4.3678,4.3649,4.3648,4.3605,4.3503,4.3477,4.3577,4.3576,4.3576,4.3575,4.3575,4.3906,4.3873,4.3892,4.3887,4.3861,4.3863,4.3815,4.3804,4.3793,4.3798,4.3752,4.3684,4.3661,4.3651,4.3629,4.3762,4.3762,4.3762,4.3762,4.3984,4.3969,4.3979,4.3973,4.3963,4.392,4.3941,4.391,4.3871,4.3861,4.3837,4.3805,4.3796,4.3778,4.3765,4.3743,4.3903,4.3903,4.3904,4.4055,4.4037,4.4063,4.4026,4.4002,4.3983,4.4001,4.3994,4.3943,4.3908,4.3852,4.3846,4.3794,4.3779,4.3741,4.3722,4.3681,0,0]}]]